Location: Jonesport
(44.5330°N, 67.5990°W)
Time: 12:25:05
(UTC-04:00)

Iridium 35 - Visible Passes

Search period start: 02 August 2015 00:00
Search period end: 12 August 2015 00:00
Orbit: 776 x 779 km, 86.4° (Epoch: 02 August)

Date Brightness Start Highest point End Pass type
(mag) Time Alt. Az. Time Alt. Az. Time Alt. Az.
02 Aug 7.6 21:28:08 10° WSW 21:32:03 21° WNW 21:35:51 10° NNW visible
03 Aug 6.7 20:53:26 10° SW 20:58:12 35° W 21:02:58 10° NNW visible
04 Aug 5.6 20:19:21 10° SSW 20:24:32 63° W 20:29:43 10° N visible
05 Aug 7.9 21:29:27 10° WSW 21:32:27 15° WNW 21:35:11 10° NW visible
06 Aug 7.4 20:54:09 10° SW 20:58:29 25° WNW 21:02:44 10° NNW visible
07 Aug 6.4 20:19:44 10° SSW 20:24:43 44° W 20:29:42 10° N visible
08 Aug 8.5 21:32:17 10° WNW 21:32:53 10° WNW 21:33:08 10° WNW visible
09 Aug 7.9 20:55:10 10° WSW 20:58:50 18° WNW 21:02:19 10° NNW visible
10 Aug 7.1 20:20:18 10° SW 20:24:57 31° WNW 20:29:33 10° NNW visible
